This demonstration page uses our WeatherBlox Daily Observations layout. Learn more.

Left ArrowRight Arrow

Hourly Observations for February 12, 2017

Temp ( °F °C ) Dew Point ( °F °C ) Humidity (%) Winds ( mph kmh ) Pressure ( in mb ) Visibility ( mi km ) Precip ( " mm )
12:51 am 00:51 Clear 56 13.3 39 3.9 53 53 NE 7 11 29.93 1014 10 16 N/A
1:51 am 01:51 Clear 53 11.7 39 3.9 59 59 ESE 3 6 29.93 1014 10 16 N/A
2:51 am 02:51 Clear 53 11.7 39 3.9 59 59 N N/A 29.92 1013 10 16 N/A
3:51 am 03:51 Clear 50 10 39 3.9 66 66 SE 5 7 29.92 1013 10 16 N/A
4:51 am 04:51 Clear 52 11.1 38 3.3 59 59 N N/A 29.91 1013 10 16 N/A
5:51 am 05:51 Clear 50 10 38 3.3 63 63 N N/A 29.93 1014 10 16 N/A
6:51 am 06:51 Clear 49 9.4 38 3.3 66 66 SSE 5 7 29.95 1014 10 16 N/A
7:51 am 07:51 Sunny 54 12.2 38 3.3 55 55 SSE 9 15 29.95 1014 10 16 N/A
8:51 am 08:51 Sunny 58 14.4 37 2.8 46 46 SE 12 19 29.96 1015 10 16 N/A
9:51 am 09:51 Sunny 61 16.1 37 2.8 41 41 ESE 9 15 29.98 1015 10 16 N/A
10:51 am 10:51 Mostly Cloudy 62 16.7 39 3.9 43 43 SSE 8 13 29.98 1015 10 16 N/A
11:51 am 11:51 Mostly Cloudy 62 16.7 41 5 46 46 SE 8 13 29.99 1016 10 16 N/A
12:51 pm 12:51 Cloudy with Light Rain 61 16.1 47 8.3 60 60 E 22 35 29.96 1015 10 16 0.01 0.25
1:51 pm 13:51 Cloudy 60 15.6 48 8.9 65 65 E 17 28 29.96 1015 10 16 N/A
2:51 pm 14:51 Cloudy with Light Rain 60 15.6 48 8.9 65 65 SE 7 11 29.98 1015 10 16 N/A
3:51 pm 15:51 Cloudy with Light Rain 55 12.8 51 10.6 87 87 E 17 28 29.99 1016 3 5 0.06 1.52
4:51 pm 16:51 Cloudy with Light Rain 55 12.8 49 9.4 80 80 ESE 15 24 29.98 1015 10 16 0.02 0.51
5:51 pm 17:51 Mostly Cloudy 56 13.3 48 8.9 75 75 ENE 18 30 29.96 1015 10 16 N/A
6:25 pm 18:25 Clear 55 12.8 47 8.3 74 74 SSE 14 22 29.97 1015 10 16 N/A
6:51 pm 18:51 Mostly Clear 55 12.8 46 7.8 72 72 ESE 8 13 30.01 1016 10 16 N/A
7:51 pm 19:51 Cloudy 55 12.8 47 8.3 74 74 E 13 20 30.03 1017 10 16 N/A
8:51 pm 20:51 Cloudy 54 12.2 46 7.8 75 75 ESE 8 13 30.04 1017 10 16 N/A
9:51 pm 21:51 Cloudy 55 12.8 47 8.3 74 74 SE 15 24 30.03 1017 10 16 N/A
10:51 pm 22:51 Cloudy 53 11.7 46 7.8 77 77 SE 9 15 30.03 1017 10 16 N/A
11:51 pm 23:51 Cloudy 53 11.7 44 6.7 72 72 ESE 15 24 30.05 1018 10 16 N/A

Powered by AerisWeather